Time,TemperatureF,DewpointF,PressureIn,WindDirection,WindDirectionDegrees,WindSpeedMPH,WindSpeedGustMPH,Humidity,HourlyPrecipIn,Conditions,Clouds,dailyrainin,SoftwareType,DateUTC
2013-07-17 00:03:00,61.8,57.2,29.97,ENE,69,1.0,0.0,85,0.00,,FEW018,0.00,VWS V14.01,2013-07-17 07:03:00,
2013-07-17 00:08:00,61.8,57.2,29.97,ENE,63,0.0,0.0,85,0.00,,FEW018,0.00,VWS V14.01,2013-07-17 07:08:00,
2013-07-17 00:13:00,61.7,57.2,29.97,ENE,76,0.0,0.0,85,0.00,,FEW018,0.00,VWS V14.01,2013-07-17 07:13:00,
2013-07-17 00:18:00,61.6,57.4,29.98,ENE,67,2.0,0.0,86,0.00,,FEW018,0.00,VWS V14.01,2013-07-17 07:18:00,
2013-07-17 00:23:00,61.5,57.3,29.98,ENE,65,1.0,0.0,86,0.00,,FEW016,0.00,VWS V14.01,2013-07-17 07:23:00,
2013-07-17 00:28:00,61.4,57.2,29.98,ENE,61,3.0,0.0,86,0.00,,FEW016,0.00,VWS V14.01,2013-07-17 07:28:00,
2013-07-17 00:33:00,61.4,57.2,29.98,ENE,69,0.0,0.0,86,0.00,,FEW016,0.00,VWS V14.01,2013-07-17 07:33:00,
2013-07-17 00:38:00,61.3,57.1,29.98,East,88,0.0,0.0,86,0.00,,FEW016,0.00,VWS V14.01,2013-07-17 07:38:00,
2013-07-17 00:43:00,61.2,57.0,29.98,NE,53,1.0,0.0,86,0.00,,BKN016,0.00,VWS V14.01,2013-07-17 07:43:00,
2013-07-17 00:48:00,61.3,57.1,29.98,ESE,107,2.0,0.0,86,0.00,,BKN016,0.00,VWS V14.01,2013-07-17 07:48:00,
2013-07-17 00:53:00,61.4,57.2,29.99,ENE,75,1.0,0.0,86,0.00,,BKN016,0.00,VWS V14.01,2013-07-17 07:53:00,
2013-07-17 00:58:00,61.5,57.3,29.99,NE,51,4.0,0.0,86,0.00,,BKN016,0.00,VWS V14.01,2013-07-17 07:58:00,
2013-07-17 01:03:00,61.6,57.4,29.99,East,80,0.0,0.0,86,0.00,,BKN016,0.00,VWS V14.01,2013-07-17 08:03:00,
2013-07-17 01:08:00,61.6,57.4,29.99,NE,52,1.0,0.0,86,0.00,,BKN016,0.00,VWS V14.01,2013-07-17 08:08:00,
2013-07-17 01:13:00,61.7,57.5,29.99,ENE,76,0.0,0.0,86,0.00,,BKN016,0.00,VWS V14.01,2013-07-17 08:13:00,
2013-07-17 01:18:00,61.7,57.5,29.99,ENE,67,0.0,0.0,86,0.00,,BKN016,0.00,VWS V14.01,2013-07-17 08:18:00,
2013-07-17 01:23:00,61.7,57.2,30.00,ESE,102,0.0,0.0,85,0.00,,OVC016,0.00,VWS V14.01,2013-07-17 08:23:00,
2013-07-17 01:28:00,61.7,57.2,30.00,ENE,75,1.0,0.0,85,0.00,,OVC016,0.00,VWS V14.01,2013-07-17 08:28:00,
2013-07-17 01:33:00,61.6,57.0,30.00,East,79,0.0,0.0,85,0.00,,OVC016,0.00,VWS V14.01,2013-07-17 08:33:00,
2013-07-17 01:38:00,61.6,57.4,30.00,East,82,0.0,0.0,86,0.00,,OVC016,0.00,VWS V14.01,2013-07-17 08:38:00,
2013-07-17 01:43:00,61.6,57.0,30.00,East,83,0.0,0.0,85,0.00,,OVC016,0.00,VWS V14.01,2013-07-17 08:43:00,
2013-07-17 01:48:00,61.6,57.0,30.00,ENE,61,1.0,0.0,85,0.00,,OVC016,0.00,VWS V14.01,2013-07-17 08:48:00,
2013-07-17 01:53:00,61.6,57.0,30.00,ENE,69,1.0,0.0,85,0.00,,OVC016,0.00,VWS V14.01,2013-07-17 08:53:00,
2013-07-17 01:58:00,61.6,57.0,30.00,ESE,109,0.0,0.0,85,0.00,,OVC016,0.00,VWS V14.01,2013-07-17 08:58:00,
2013-07-17 02:03:00,61.6,57.0,30.00,ENE,69,0.0,0.0,85,0.00,,OVC016,0.00,VWS V14.01,2013-07-17 09:03:00,
2013-07-17 02:08:00,61.7,57.2,30.00,ENE,76,1.0,0.0,85,0.00,,OVC016,0.00,VWS V14.01,2013-07-17 09:08:00,
2013-07-17 02:13:00,61.7,57.2,30.00,ENE,58,3.0,0.0,85,0.00,,OVC016,0.00,VWS V14.01,2013-07-17 09:13:00,
2013-07-17 02:18:00,61.7,57.2,30.00,ENE,68,2.0,0.0,85,0.00,,OVC016,0.00,VWS V14.01,2013-07-17 09:18:00,
2013-07-17 02:23:00,61.7,57.2,30.01,East,98,0.0,0.0,85,0.00,,OVC016,0.00,VWS V14.01,2013-07-17 09:23:00,
2013-07-17 02:28:00,61.6,57.4,30.01,ENE,73,0.0,0.0,86,0.00,,OVC016,0.00,VWS V14.01,2013-07-17 09:28:00,
2013-07-17 02:33:00,61.6,57.4,30.01,ENE,69,0.0,0.0,86,0.00,,OVC016,0.00,VWS V14.01,2013-07-17 09:33:00,
2013-07-17 02:38:00,61.6,57.4,30.01,ENE,67,1.0,0.0,86,0.00,,OVC016,0.00,VWS V14.01,2013-07-17 09:38:00,
2013-07-17 02:43:00,61.5,57.3,30.02,ENE,75,1.0,0.0,86,0.00,,OVC018,0.00,VWS V14.01,2013-07-17 09:43:00,
2013-07-17 02:48:00,61.4,57.2,30.02,ENE,73,0.0,0.0,86,0.00,,OVC018,0.00,VWS V14.01,2013-07-17 09:48:00,
2013-07-17 02:53:00,61.3,57.1,30.02,ENE,76,0.0,0.0,86,0.00,,OVC018,0.00,VWS V14.01,2013-07-17 09:53:00,
2013-07-17 02:58:00,61.2,57.0,30.02,ENE,67,2.0,0.0,86,0.00,,OVC018,0.00,VWS V14.01,2013-07-17 09:58:00,
2013-07-17 03:03:00,61.1,56.9,30.03,ENE,71,0.0,0.0,86,0.00,,BKN028,0.00,VWS V14.01,2013-07-17 10:03:00,
2013-07-17 03:08:00,61.1,56.9,30.03,East,88,0.0,0.0,86,0.00,,BKN028,0.00,VWS V14.01,2013-07-17 10:08:00,
2013-07-17 03:13:00,61.1,56.9,30.03,East,88,0.0,0.0,86,0.00,,BKN028,0.00,VWS V14.01,2013-07-17 10:13:00,
2013-07-17 03:18:00,61.1,56.9,30.03,East,82,0.0,0.0,86,0.00,,BKN028,0.00,VWS V14.01,2013-07-17 10:18:00,
2013-07-17 03:23:00,61.1,56.9,30.03,ENE,67,1.0,0.0,86,0.00,,BKN028,0.00,VWS V14.01,2013-07-17 10:23:00,
2013-07-17 03:28:00,61.1,56.9,30.04,East,80,0.0,0.0,86,0.00,,BKN028,0.00,VWS V14.01,2013-07-17 10:28:00,
2013-07-17 03:33:00,61.1,56.9,30.04,East,81,0.0,0.0,86,0.00,,BKN028,0.00,VWS V14.01,2013-07-17 10:33:00,
2013-07-17 03:38:00,61.1,56.9,30.04,NE,39,4.0,0.0,86,0.00,,BKN028,0.00,VWS V14.01,2013-07-17 10:38:00,
2013-07-17 03:43:00,61.2,57.0,30.04,NE,54,0.0,0.0,86,0.00,,OVC024,0.00,VWS V14.01,2013-07-17 10:43:00,
2013-07-17 03:48:00,61.2,57.0,30.04,WNW,300,0.0,0.0,86,0.00,,OVC024,0.00,VWS V14.01,2013-07-17 10:48:00,
2013-07-17 03:53:00,61.2,57.0,30.04,WNW,300,0.0,0.0,86,0.00,,OVC024,0.00,VWS V14.01,2013-07-17 10:53:00,
2013-07-17 03:58:00,61.2,57.0,30.04,NE,52,0.0,0.0,86,0.00,,OVC024,0.00,VWS V14.01,2013-07-17 10:58:00,
2013-07-17 04:03:00,61.2,56.7,30.04,NE,49,1.0,0.0,85,0.00,,OVC022,0.00,VWS V14.01,2013-07-17 11:03:00,
2013-07-17 04:08:00,61.2,56.7,30.04,East,80,1.0,0.0,85,0.00,,OVC022,0.00,VWS V14.01,2013-07-17 11:08:00,
2013-07-17 04:13:00,61.3,56.8,30.05,East,80,1.0,0.0,85,0.00,,OVC022,0.00,VWS V14.01,2013-07-17 11:13:00,
2013-07-17 04:18:00,61.3,56.8,30.05,ENE,78,0.0,0.0,85,0.00,,OVC022,0.00,VWS V14.01,2013-07-17 11:18:00,
2013-07-17 04:23:00,61.3,56.8,30.05,ENE,75,0.0,0.0,85,0.00,,OVC022,0.00,VWS V14.01,2013-07-17 11:23:00,
2013-07-17 04:28:00,61.3,56.8,30.05,WNW,300,1.0,0.0,85,0.00,,OVC022,0.00,VWS V14.01,2013-07-17 11:28:00,
2013-07-17 04:33:00,61.3,56.8,30.05,East,80,1.0,0.0,85,0.00,,OVC022,0.00,VWS V14.01,2013-07-17 11:33:00,
2013-07-17 04:38:00,61.3,56.8,30.05,East,80,0.0,0.0,85,0.00,,OVC022,0.00,VWS V14.01,2013-07-17 11:38:00,
2013-07-17 04:43:00,61.3,56.8,30.06,ENE,57,0.0,0.0,85,0.00,,OVC022,0.00,VWS V14.01,2013-07-17 11:43:00,
2013-07-17 04:48:00,61.3,56.8,30.06,ESE,107,0.0,0.0,85,0.00,,OVC022,0.00,VWS V14.01,2013-07-17 11:48:00,
2013-07-17 04:53:00,61.3,56.8,30.06,NE,51,1.0,0.0,85,0.00,,OVC022,0.00,VWS V14.01,2013-07-17 11:53:00,
2013-07-17 04:58:00,61.3,56.8,30.06,NE,51,0.0,0.0,85,0.00,,OVC022,0.00,VWS V14.01,2013-07-17 11:58:00,
2013-07-17 05:03:00,61.3,56.8,30.06,East,79,0.0,0.0,85,0.00,,OVC022,0.00,VWS V14.01,2013-07-17 12:03:00,
2013-07-17 05:08:00,61.3,56.8,30.06,East,80,0.0,0.0,85,0.00,,OVC022,0.00,VWS V14.01,2013-07-17 12:08:00,
2013-07-17 05:13:00,61.3,56.8,30.06,East,79,1.0,0.0,85,0.00,,OVC022,0.00,VWS V14.01,2013-07-17 12:13:00,
2013-07-17 05:18:00,61.3,56.8,30.06,East,79,0.0,0.0,85,0.00,,OVC022,0.00,VWS V14.01,2013-07-17 12:18:00,
2013-07-17 05:23:00,61.3,56.8,30.07,East,80,0.0,0.0,85,0.00,,OVC020,0.00,VWS V14.01,2013-07-17 12:23:00,
2013-07-17 05:28:00,61.2,56.7,30.07,East,80,0.0,0.0,85,0.00,,OVC020,0.00,VWS V14.01,2013-07-17 12:28:00,
2013-07-17 05:33:00,61.2,56.7,30.07,East,80,0.0,0.0,85,0.00,,OVC020,0.00,VWS V14.01,2013-07-17 12:33:00,
2013-07-17 05:38:00,61.2,56.7,30.07,East,80,0.0,0.0,85,0.00,,OVC020,0.00,VWS V14.01,2013-07-17 12:38:00,
2013-07-17 05:43:00,61.1,56.2,30.07,East,81,1.0,0.0,84,0.00,,OVC018,0.00,VWS V14.01,2013-07-17 12:43:00,
2013-07-17 05:48:00,61.2,56.3,30.07,East,80,0.0,0.0,84,0.00,,OVC018,0.00,VWS V14.01,2013-07-17 12:48:00,
2013-07-17 05:53:00,61.2,56.3,30.07,East,80,0.0,0.0,84,0.00,,OVC018,0.00,VWS V14.01,2013-07-17 12:53:00,
2013-07-17 05:58:00,61.2,56.3,30.08,East,86,0.0,0.0,84,0.00,,OVC018,0.00,VWS V14.01,2013-07-17 12:58:00,
2013-07-17 06:03:00,61.1,56.2,30.08,East,86,0.0,0.0,84,0.00,,OVC018,0.00,VWS V14.01,2013-07-17 13:03:00,
2013-07-17 06:08:00,61.1,56.6,30.08,East,85,0.0,0.0,85,0.00,,OVC018,0.00,VWS V14.01,2013-07-17 13:08:00,
2013-07-17 06:13:00,61.0,56.5,30.09,East,85,0.0,0.0,85,0.00,,OVC018,0.00,VWS V14.01,2013-07-17 13:13:00,
2013-07-17 06:18:00,60.9,56.4,30.09,East,84,0.0,0.0,85,0.00,,OVC018,0.00,VWS V14.01,2013-07-17 13:18:00,
2013-07-17 06:23:00,60.8,56.6,30.09,ENE,78,0.0,0.0,86,0.00,,OVC020,0.00,VWS V14.01,2013-07-17 13:23:00,
2013-07-17 06:28:00,60.5,56.6,30.09,ENE,76,0.0,0.0,87,0.00,,OVC020,0.00,VWS V14.01,2013-07-17 13:28:00,
2013-07-17 06:33:00,60.1,56.5,30.09,ESE,113,0.0,0.0,88,0.00,,OVC020,0.00,VWS V14.01,2013-07-17 13:33:00,
2013-07-17 06:38:00,59.9,56.7,30.09,East,85,0.0,0.0,89,0.00,,OVC020,0.00,VWS V14.01,2013-07-17 13:38:00,
2013-07-17 06:43:00,59.6,56.4,30.10,NE,42,2.0,0.0,89,0.00,,OVC020,0.00,VWS V14.01,2013-07-17 13:43:00,
2013-07-17 06:48:00,59.5,56.6,30.10,East,84,1.0,0.0,90,0.00,,OVC020,0.00,VWS V14.01,2013-07-17 13:48:00,
2013-07-17 06:53:00,59.3,56.4,30.10,ESE,117,1.0,0.0,90,0.00,,OVC020,0.00,VWS V14.01,2013-07-17 13:53:00,
2013-07-17 06:58:00,59.2,56.3,30.10,East,96,1.0,0.0,90,0.00,,OVC020,0.00,VWS V14.01,2013-07-17 13:58:00,
2013-07-17 07:03:00,59.1,56.5,30.10,East,96,0.0,0.0,91,0.00,,OVC018,0.00,VWS V14.01,2013-07-17 14:03:00,
2013-07-17 07:08:00,59.1,56.5,30.10,East,100,0.0,0.0,91,0.00,,OVC018,0.00,VWS V14.01,2013-07-17 14:08:00,
2013-07-17 07:13:00,59.0,56.4,30.10,ESE,122,2.0,0.0,91,0.00,,OVC018,0.00,VWS V14.01,2013-07-17 14:13:00,
2013-07-17 07:18:00,58.9,56.3,30.10,ESE,123,0.0,0.0,91,0.00,,OVC018,0.00,VWS V14.01,2013-07-17 14:18:00,
2013-07-17 07:23:00,58.9,56.3,30.11,ESE,122,0.0,0.0,91,0.00,,OVC016,0.00,VWS V14.01,2013-07-17 14:23:00,
2013-07-17 07:28:00,58.9,56.3,30.11,ESE,113,0.0,0.0,91,0.00,,OVC016,0.00,VWS V14.01,2013-07-17 14:28:00,
2013-07-17 07:33:00,58.9,56.3,30.11,ESE,115,1.0,0.0,91,0.00,,OVC016,0.00,VWS V14.01,2013-07-17 14:33:00,
2013-07-17 07:38:00,58.9,56.3,30.11,ESE,115,0.0,0.0,91,0.00,,OVC016,0.00,VWS V14.01,2013-07-17 14:38:00,
2013-07-17 07:43:00,58.9,56.3,30.11,ESE,116,0.0,0.0,91,0.00,,OVC012,0.00,VWS V14.01,2013-07-17 14:43:00,
2013-07-17 07:48:00,59.0,56.4,30.11,ESE,116,0.0,0.0,91,0.00,,OVC012,0.00,VWS V14.01,2013-07-17 14:48:00,
2013-07-17 07:53:00,59.0,56.4,30.11,ESE,116,0.0,0.0,91,0.00,,OVC012,0.00,VWS V14.01,2013-07-17 14:53:00,
2013-07-17 07:58:00,59.1,56.5,30.11,ESE,116,0.0,0.0,91,0.00,,OVC012,0.00,VWS V14.01,2013-07-17 14:58:00,
2013-07-17 08:03:00,59.2,56.9,30.12,ESE,116,0.0,0.0,92,0.00,,OVC012,0.00,VWS V14.01,2013-07-17 15:03:00,
2013-07-17 08:08:00,59.2,56.6,30.12,SSW,192,0.0,0.0,91,0.00,,OVC012,0.00,VWS V14.01,2013-07-17 15:08:00,
2013-07-17 08:13:00,59.1,56.5,30.12,SSW,192,0.0,0.0,91,0.00,,OVC012,0.00,VWS V14.01,2013-07-17 15:13:00,
2013-07-17 08:18:00,59.1,56.5,30.12,SSW,192,0.0,0.0,91,0.00,,OVC012,0.00,VWS V14.01,2013-07-17 15:18:00,
2013-07-17 08:23:00,59.1,56.5,30.12,SSW,192,0.0,0.0,91,0.01,,OVC012,0.01,VWS V14.01,2013-07-17 15:23:00,
2013-07-17 08:28:00,59.2,56.6,30.13,SSW,192,0.0,0.0,91,0.01,,OVC012,0.01,VWS V14.01,2013-07-17 15:28:00,
2013-07-17 08:33:00,59.3,56.7,30.13,SSW,192,0.0,0.0,91,0.01,,OVC012,0.01,VWS V14.01,2013-07-17 15:33:00,
2013-07-17 08:38:00,59.3,56.7,30.13,SSW,192,0.0,0.0,91,0.01,,OVC012,0.01,VWS V14.01,2013-07-17 15:38:00,
2013-07-17 08:43:00,59.4,56.8,30.13,SSW,192,0.0,0.0,91,0.01,,OVC015,0.01,VWS V14.01,2013-07-17 15:43:00,
2013-07-17 08:48:00,59.4,56.8,30.13,SSW,192,0.0,0.0,91,0.01,,OVC015,0.01,VWS V14.01,2013-07-17 15:48:00,
2013-07-17 08:53:00,59.4,56.8,30.13,SSW,192,0.0,0.0,91,0.01,,OVC015,0.01,VWS V14.01,2013-07-17 15:53:00,
2013-07-17 08:58:00,59.5,56.9,30.14,SSW,192,0.0,0.0,91,0.01,,OVC015,0.01,VWS V14.01,2013-07-17 15:58:00,
2013-07-17 09:03:00,59.6,57.0,30.14,SSW,192,0.0,0.0,91,0.01,,OVC018,0.01,VWS V14.01,2013-07-17 16:03:00,
2013-07-17 09:08:00,59.7,57.1,30.14,SSW,192,0.0,0.0,91,0.01,,OVC018,0.01,VWS V14.01,2013-07-17 16:08:00,
2013-07-17 09:13:00,59.6,57.0,30.14,South,186,0.0,0.0,91,0.01,,OVC018,0.01,VWS V14.01,2013-07-17 16:13:00,
2013-07-17 09:18:00,59.6,57.0,30.14,South,186,0.0,0.0,91,0.01,,OVC018,0.01,VWS V14.01,2013-07-17 16:18:00,
2013-07-17 09:23:00,59.7,57.1,30.14,South,186,0.0,0.0,91,0.00,,OVC019,0.01,VWS V14.01,2013-07-17 16:23:00,
2013-07-17 09:28:00,59.8,57.2,30.14,South,186,0.0,0.0,91,0.01,,OVC019,0.02,VWS V14.01,2013-07-17 16:28:00,
2013-07-17 09:33:00,59.8,57.2,30.14,South,186,0.0,0.0,91,0.01,,OVC019,0.02,VWS V14.01,2013-07-17 16:33:00,
2013-07-17 09:38:00,59.8,56.9,30.14,South,185,0.0,0.0,90,0.01,,OVC019,0.02,VWS V14.01,2013-07-17 16:38:00,
2013-07-17 09:43:00,59.8,56.9,30.15,ESE,115,0.0,0.0,90,0.01,,OVC016,0.02,VWS V14.01,2013-07-17 16:43:00,
2013-07-17 09:48:00,59.9,57.0,30.14,ESE,115,0.0,0.0,90,0.01,,OVC016,0.02,VWS V14.01,2013-07-17 16:48:00,
2013-07-17 09:53:00,60.0,57.1,30.15,ESE,116,0.0,0.0,90,0.01,,OVC016,0.02,VWS V14.01,2013-07-17 16:53:00,
2013-07-17 09:58:00,60.0,57.1,30.15,ESE,115,0.0,0.0,90,0.01,,OVC016,0.02,VWS V14.01,2013-07-17 16:58:00,
2013-07-17 10:03:00,60.2,57.3,30.15,ESE,115,0.0,0.0,90,0.01,,OVC015,0.02,VWS V14.01,2013-07-17 17:03:00,
2013-07-17 10:08:00,60.4,57.5,30.15,ESE,116,0.0,0.0,90,0.01,,OVC015,0.02,VWS V14.01,2013-07-17 17:08:00,
2013-07-17 10:13:00,60.5,57.2,30.15,ESE,116,0.0,0.0,89,0.01,,OVC015,0.02,VWS V14.01,2013-07-17 17:13:00,
2013-07-17 10:18:00,60.7,57.4,30.15,ESE,116,0.0,0.0,89,0.01,,OVC015,0.02,VWS V14.01,2013-07-17 17:18:00,
2013-07-17 10:23:00,60.8,57.5,30.15,SE,134,0.0,0.0,89,0.01,,OVC013,0.02,VWS V14.01,2013-07-17 17:23:00,
2013-07-17 10:28:00,61.0,57.7,30.15,SE,134,0.0,0.0,89,0.00,,OVC013,0.02,VWS V14.01,2013-07-17 17:28:00,
2013-07-17 10:33:00,61.3,58.0,30.15,SE,134,0.0,0.0,89,0.00,,OVC013,0.02,VWS V14.01,2013-07-17 17:33:00,
2013-07-17 10:38:00,61.6,58.0,30.16,SE,133,0.0,0.0,88,0.00,,OVC013,0.02,VWS V14.01,2013-07-17 17:38:00,
2013-07-17 10:43:00,61.8,57.9,30.16,SE,134,0.0,0.0,87,0.00,,OVC013,0.02,VWS V14.01,2013-07-17 17:43:00,
2013-07-17 10:48:00,62.1,58.2,30.16,SE,133,0.0,0.0,87,0.00,,OVC013,0.02,VWS V14.01,2013-07-17 17:48:00,
2013-07-17 10:53:00,62.4,57.8,30.16,SE,133,0.0,0.0,85,0.00,,OVC013,0.02,VWS V14.01,2013-07-17 17:53:00,
2013-07-17 10:58:00,62.8,57.9,30.16,SE,133,0.0,0.0,84,0.00,,OVC013,0.02,VWS V14.01,2013-07-17 17:58:00,
2013-07-17 11:03:00,62.9,58.0,30.16,SE,133,0.0,0.0,84,0.00,,OVC015,0.02,VWS V14.01,2013-07-17 18:03:00,
2013-07-17 11:08:00,63.0,58.1,30.16,SSE,147,0.0,0.0,84,0.00,,OVC015,0.02,VWS V14.01,2013-07-17 18:08:00,
2013-07-17 11:13:00,63.1,57.9,30.16,SSE,147,0.0,0.0,83,0.00,,OVC015,0.02,VWS V14.01,2013-07-17 18:13:00,
2013-07-17 11:18:00,63.1,57.9,30.17,SE,146,0.0,0.0,83,0.00,,OVC015,0.02,VWS V14.01,2013-07-17 18:18:00,
2013-07-17 11:23:00,63.2,58.0,30.17,SSE,147,0.0,0.0,83,0.00,,OVC017,0.02,VWS V14.01,2013-07-17 18:23:00,
2013-07-17 11:28:00,63.4,57.8,30.16,ESE,123,0.0,0.0,82,0.00,,OVC017,0.02,VWS V14.01,2013-07-17 18:28:00,
2013-07-17 11:33:00,63.3,58.1,30.17,ESE,122,0.0,0.0,83,0.00,,OVC017,0.02,VWS V14.01,2013-07-17 18:33:00,
2013-07-17 11:38:00,63.4,58.2,30.17,ESE,122,0.0,0.0,83,0.00,,OVC017,0.02,VWS V14.01,2013-07-17 18:38:00,
2013-07-17 11:43:00,63.9,58.6,30.17,South,186,0.0,0.0,83,0.00,,OVC024,0.02,VWS V14.01,2013-07-17 18:43:00,
2013-07-17 11:48:00,63.7,58.8,30.17,SSW,195,2.0,0.0,84,0.00,,OVC024,0.02,VWS V14.01,2013-07-17 18:48:00,
2013-07-17 11:53:00,64.0,59.1,30.17,SSW,196,1.0,0.0,84,0.00,,OVC024,0.02,VWS V14.01,2013-07-17 18:53:00,
2013-07-17 11:58:00,64.2,58.6,30.17,SSW,194,0.0,0.0,82,0.00,,OVC024,0.02,VWS V14.01,2013-07-17 18:58:00,
2013-07-17 12:03:00,64.2,58.6,30.17,SSW,203,0.0,0.0,82,0.00,,OVC032,0.02,VWS V14.01,2013-07-17 19:03:00,
2013-07-17 12:08:00,64.3,58.7,30.17,SSW,198,0.0,0.0,82,0.00,,OVC032,0.02,VWS V14.01,2013-07-17 19:08:00,
2013-07-17 12:13:00,64.3,58.3,30.17,SSE,161,2.0,0.0,81,0.00,,OVC032,0.02,VWS V14.01,2013-07-17 19:13:00,
2013-07-17 12:18:00,64.0,57.7,30.17,SE,138,0.0,0.0,80,0.00,,OVC032,0.02,VWS V14.01,2013-07-17 19:18:00,
2013-07-17 12:23:00,64.1,58.2,30.17,WSW,237,0.0,0.0,81,0.00,,OVC032,0.02,VWS V14.01,2013-07-17 19:23:00,
2013-07-17 12:28:00,64.2,58.3,30.17,West,259,0.0,0.0,81,0.00,,OVC032,0.02,VWS V14.01,2013-07-17 19:28:00,
2013-07-17 12:33:00,64.6,58.7,30.17,SSW,200,1.0,0.0,81,0.00,,OVC032,0.02,VWS V14.01,2013-07-17 19:33:00,
2013-07-17 12:38:00,64.9,58.6,30.17,SSW,198,1.0,0.0,80,0.00,,OVC032,0.02,VWS V14.01,2013-07-17 19:38:00,
2013-07-17 12:43:00,65.2,59.2,30.17,WSW,244,2.0,0.0,81,0.00,,OVC032,0.02,VWS V14.01,2013-07-17 19:43:00,
2013-07-17 12:48:00,65.4,59.1,30.17,SSW,194,0.0,0.0,80,0.00,,OVC032,0.02,VWS V14.01,2013-07-17 19:48:00,
2013-07-17 12:53:00,65.8,59.5,30.17,SSW,196,0.0,0.0,80,0.00,,OVC032,0.02,VWS V14.01,2013-07-17 19:53:00,
2013-07-17 12:58:00,66.5,59.4,30.17,SSW,206,1.0,0.0,78,0.00,,OVC032,0.02,VWS V14.01,2013-07-17 19:58:00,
2013-07-17 13:03:00,66.6,59.2,30.17,SSW,210,0.0,0.0,77,0.00,,OVC030,0.02,VWS V14.01,2013-07-17 20:03:00,
2013-07-17 13:08:00,66.9,59.1,30.17,SSW,195,1.0,0.0,76,0.00,,OVC030,0.02,VWS V14.01,2013-07-17 20:08:00,
2013-07-17 13:13:00,66.6,58.8,30.17,WSW,244,0.0,0.0,76,0.00,,OVC030,0.02,VWS V14.01,2013-07-17 20:13:00,
2013-07-17 13:18:00,66.4,58.6,30.17,WSW,250,0.0,0.0,76,0.00,,OVC030,0.02,VWS V14.01,2013-07-17 20:18:00,
2013-07-17 13:23:00,66.4,58.2,30.17,SW,217,1.0,0.0,75,0.00,,OVC030,0.02,VWS V14.01,2013-07-17 20:23:00,
2013-07-17 13:28:00,66.7,58.9,30.17,ESE,118,0.0,0.0,76,0.00,,OVC030,0.02,VWS V14.01,2013-07-17 20:28:00,
2013-07-17 13:33:00,67.5,58.5,30.17,NNW,328,1.0,0.0,73,0.00,,OVC030,0.02,VWS V14.01,2013-07-17 20:33:00,
2013-07-17 13:38:00,67.6,59.0,30.17,SSE,153,2.0,0.0,74,0.00,,OVC030,0.02,VWS V14.01,2013-07-17 20:38:00,
2013-07-17 13:43:00,67.9,59.3,30.17,WNW,298,2.0,0.0,74,0.00,,OVC032,0.02,VWS V14.01,2013-07-17 20:43:00,
2013-07-17 13:48:00,67.8,58.8,30.17,SSW,205,0.0,0.0,73,0.00,,OVC032,0.02,VWS V14.01,2013-07-17 20:48:00,
2013-07-17 13:53:00,67.6,59.0,30.17,SW,223,0.0,0.0,74,0.00,,OVC032,0.02,VWS V14.01,2013-07-17 20:53:00,
2013-07-17 13:58:00,68.4,59.0,30.17,SSW,209,2.0,0.0,72,0.00,,OVC032,0.02,VWS V14.01,2013-07-17 20:58:00,
2013-07-17 14:03:00,68.3,58.9,30.16,South,188,0.0,0.0,72,0.00,,OVC032,0.02,VWS V14.01,2013-07-17 21:03:00,
2013-07-17 14:08:00,68.8,58.6,30.16,West,267,3.0,0.0,70,0.00,,OVC032,0.02,VWS V14.01,2013-07-17 21:08:00,
2013-07-17 14:13:00,69.2,59.4,30.17,WNW,292,1.0,0.0,71,0.00,,OVC032,0.02,VWS V14.01,2013-07-17 21:13:00,
2013-07-17 14:18:00,70.1,58.2,30.17,WNW,300,1.0,0.0,66,0.00,,OVC032,0.02,VWS V14.01,2013-07-17 21:18:00,
2013-07-17 14:23:00,70.4,58.1,30.16,ENE,63,2.0,0.0,65,0.00,,OVC034,0.02,VWS V14.01,2013-07-17 21:23:00,
2013-07-17 14:28:00,70.1,58.7,30.17,East,101,2.0,0.0,67,0.00,,OVC034,0.02,VWS V14.01,2013-07-17 21:28:00,
2013-07-17 14:33:00,69.7,58.7,30.17,NNE,28,2.0,0.0,68,0.00,,OVC034,0.02,VWS V14.01,2013-07-17 21:33:00,
2013-07-17 14:38:00,69.4,58.4,30.17,ESE,103,0.0,0.0,68,0.00,,OVC034,0.02,VWS V14.01,2013-07-17 21:38:00,
2013-07-17 14:43:00,69.4,58.4,30.17,ESE,123,2.0,0.0,68,0.00,,OVC036,0.02,VWS V14.01,2013-07-17 21:43:00,
2013-07-17 14:48:00,69.3,57.9,30.17,East,91,0.0,0.0,67,0.00,,OVC036,0.02,VWS V14.01,2013-07-17 21:48:00,
2013-07-17 14:53:00,70.2,59.2,30.16,SW,214,3.0,0.0,68,0.00,,OVC036,0.02,VWS V14.01,2013-07-17 21:53:00,
2013-07-17 14:58:00,70.6,59.1,30.16,East,99,0.0,0.0,67,0.00,,OVC036,0.02,VWS V14.01,2013-07-17 21:58:00,
2013-07-17 15:02:00,70.9,57.7,30.16,East,87,2.0,0.0,63,0.00,,OVC034,0.02,VWS V14.01,2013-07-17 22:02:00,
2013-07-17 15:07:00,71.2,59.3,30.16,ESE,106,0.0,0.0,66,0.00,,OVC034,0.02,VWS V14.01,2013-07-17 22:07:00,
2013-07-17 15:12:00,71.8,57.6,30.16,ESE,116,0.0,0.0,61,0.00,,OVC034,0.02,VWS V14.01,2013-07-17 22:12:00,
2013-07-17 15:17:00,72.4,58.7,30.16,WNW,300,0.0,0.0,62,0.00,,OVC034,0.02,VWS V14.01,2013-07-17 22:17:00,
2013-07-17 15:22:00,72.4,58.2,30.16,East,91,2.0,0.0,61,0.00,,OVC034,0.02,VWS V14.01,2013-07-17 22:22:00,
2013-07-17 15:27:00,72.1,59.3,30.16,ESE,123,0.0,0.0,64,0.00,,OVC034,0.02,VWS V14.01,2013-07-17 22:27:00,
2013-07-17 15:33:00,72.0,58.7,30.16,SE,134,1.0,0.0,63,0.00,,OVC034,0.02,VWS V14.01,2013-07-17 22:33:00,
2013-07-17 15:38:00,71.8,59.0,30.16,SSE,150,0.0,0.0,64,0.00,,OVC034,0.02,VWS V14.01,2013-07-17 22:38:00,
2013-07-17 15:42:00,71.4,58.2,30.16,East,96,0.0,0.0,63,0.00,,OVC034,0.02,VWS V14.01,2013-07-17 22:42:00,
2013-07-17 15:47:00,72.5,60.1,30.16,SE,145,0.0,0.0,65,0.00,,OVC034,0.02,VWS V14.01,2013-07-17 22:47:00,
2013-07-17 15:52:00,72.9,59.1,30.16,East,83,1.0,0.0,62,0.00,,OVC034,0.02,VWS V14.01,2013-07-17 22:52:00,
2013-07-17 15:57:00,72.2,59.4,30.16,East,94,0.0,0.0,64,0.00,,OVC034,0.02,VWS V14.01,2013-07-17 22:57:00,
2013-07-17 16:02:00,71.9,59.1,30.16,ESE,103,4.0,0.0,64,0.00,,OVC034,0.02,VWS V14.01,2013-07-17 23:02:00,
2013-07-17 16:07:00,70.9,59.0,30.16,SE,142,0.0,0.0,66,0.00,,OVC034,0.02,VWS V14.01,2013-07-17 23:07:00,
2013-07-17 16:12:00,71.1,58.8,30.16,East,83,1.0,0.0,65,0.00,,OVC034,0.02,VWS V14.01,2013-07-17 23:12:00,
2013-07-17 16:17:00,71.2,58.8,30.16,SE,126,2.0,0.0,65,0.00,,OVC034,0.02,VWS V14.01,2013-07-17 23:17:00,
2013-07-17 16:22:00,71.7,58.9,30.16,WSW,254,3.0,0.0,64,0.00,,BKN034,0.02,VWS V14.01,2013-07-17 23:22:00,
2013-07-17 16:27:00,72.1,58.4,30.16,ESE,109,2.0,0.0,62,0.00,,BKN034,0.02,VWS V14.01,2013-07-17 23:27:00,
2013-07-17 16:32:00,72.6,58.4,30.16,ENE,75,6.0,0.0,61,0.00,,BKN034,0.02,VWS V14.01,2013-07-17 23:32:00,
2013-07-17 16:37:00,72.4,58.7,30.15,West,273,1.0,0.0,62,0.00,,BKN034,0.02,VWS V14.01,2013-07-17 23:37:00,
2013-07-17 16:42:00,73.0,59.7,30.15,ESE,105,4.0,0.0,63,0.00,,FEW036,0.02,VWS V14.01,2013-07-17 23:42:00,
2013-07-17 16:47:00,72.7,58.5,30.15,East,86,3.0,0.0,61,0.00,,FEW036,0.02,VWS V14.01,2013-07-17 23:47:00,
2013-07-17 16:52:00,72.8,59.5,30.15,SE,130,1.0,0.0,63,0.00,,FEW036,0.02,VWS V14.01,2013-07-17 23:52:00,
2013-07-17 16:57:00,73.1,59.3,30.15,ESE,111,1.0,0.0,62,0.00,,FEW036,0.02,VWS V14.01,2013-07-17 23:57:00,
2013-07-17 17:02:00,72.7,58.0,30.15,East,99,3.0,0.0,60,0.00,,CLR,0.02,VWS V14.01,2013-07-18 00:02:00,
2013-07-17 17:07:00,73.3,59.0,30.15,ESE,110,10.0,0.0,61,0.00,,CLR,0.02,VWS V14.01,2013-07-18 00:07:00,
2013-07-17 17:12:00,72.9,58.7,30.15,ENE,69,3.0,0.0,61,0.00,,CLR,0.02,VWS V14.01,2013-07-18 00:12:00,
2013-07-17 17:17:00,72.7,58.5,30.14,ESE,121,5.0,0.0,61,0.00,,CLR,0.02,VWS V14.01,2013-07-18 00:17:00,
2013-07-17 17:22:00,72.5,58.8,30.14,East,95,2.0,0.0,62,0.00,,CLR,0.02,VWS V14.01,2013-07-18 00:22:00,
2013-07-17 17:27:00,72.8,59.0,30.14,East,100,9.0,0.0,62,0.00,,CLR,0.02,VWS V14.01,2013-07-18 00:27:00,
2013-07-17 17:32:00,72.8,59.0,30.14,ESE,122,3.0,0.0,62,0.00,,CLR,0.02,VWS V14.01,2013-07-18 00:32:00,
2013-07-17 17:37:00,72.6,59.3,30.14,NNE,26,5.0,0.0,63,0.00,,CLR,0.02,VWS V14.01,2013-07-18 00:37:00,
2013-07-17 17:42:00,72.9,59.1,30.14,ESE,117,1.0,0.0,62,0.00,,CLR,0.02,VWS V14.01,2013-07-18 00:42:00,
2013-07-17 17:47:00,73.0,59.2,30.14,ESE,116,9.0,0.0,62,0.00,,CLR,0.02,VWS V14.01,2013-07-18 00:47:00,
2013-07-17 17:52:00,72.8,59.0,30.14,East,99,4.0,0.0,62,0.00,,CLR,0.02,VWS V14.01,2013-07-18 00:52:00,
2013-07-17 17:57:00,72.7,58.9,30.14,ENE,78,4.0,0.0,62,0.00,,CLR,0.02,VWS V14.01,2013-07-18 00:57:00,
2013-07-17 18:02:00,73.0,59.7,30.14,East,83,2.0,0.0,63,0.00,,CLR,0.02,VWS V14.01,2013-07-18 01:02:00,
2013-07-17 18:07:00,72.9,59.1,30.14,ESE,111,4.0,0.0,62,0.00,,CLR,0.02,VWS V14.01,2013-07-18 01:07:00,
2013-07-17 18:12:00,72.4,59.1,30.14,ESE,118,3.0,0.0,63,0.00,,CLR,0.02,VWS V14.01,2013-07-18 01:12:00,
2013-07-17 18:17:00,72.6,58.8,30.13,NE,46,3.0,0.0,62,0.00,,CLR,0.02,VWS V14.01,2013-07-18 01:17:00,
2013-07-17 18:22:00,72.5,58.8,30.14,ESE,106,5.0,0.0,62,0.00,,CLR,0.02,VWS V14.01,2013-07-18 01:22:00,
2013-07-17 18:27:00,71.8,58.5,30.14,ESE,119,3.0,0.0,63,0.00,,CLR,0.02,VWS V14.01,2013-07-18 01:27:00,
2013-07-17 18:32:00,71.9,58.6,30.13,ESE,107,4.0,0.0,63,0.00,,CLR,0.02,VWS V14.01,2013-07-18 01:32:00,
2013-07-17 18:37:00,71.6,58.3,30.14,ESE,111,11.0,0.0,63,0.00,,CLR,0.02,VWS V14.01,2013-07-18 01:37:00,
2013-07-17 18:42:00,70.9,58.1,30.14,East,101,3.0,0.0,64,0.00,,CLR,0.02,VWS V14.01,2013-07-18 01:42:00,
2013-07-17 18:47:00,70.8,58.9,30.14,East,96,3.0,0.0,66,0.00,,CLR,0.02,VWS V14.01,2013-07-18 01:47:00,
2013-07-17 18:52:00,70.7,58.4,30.14,ENE,72,4.0,0.0,65,0.00,,CLR,0.02,VWS V14.01,2013-07-18 01:52:00,
2013-07-17 18:57:00,70.7,58.8,30.14,ESE,117,5.0,0.0,66,0.00,,CLR,0.02,VWS V14.01,2013-07-18 01:57:00,
2013-07-17 19:02:00,70.5,58.6,30.14,ESE,105,4.0,0.0,66,0.00,,CLR,0.02,VWS V14.01,2013-07-18 02:02:00,
2013-07-17 19:07:00,70.3,58.8,30.14,East,94,5.0,0.0,67,0.00,,CLR,0.02,VWS V14.01,2013-07-18 02:07:00,
2013-07-17 19:12:00,70.3,58.8,30.14,ESE,119,4.0,0.0,67,0.00,,CLR,0.02,VWS V14.01,2013-07-18 02:12:00,
2013-07-17 19:17:00,70.1,58.7,30.14,SE,138,4.0,0.0,67,0.00,,CLR,0.02,VWS V14.01,2013-07-18 02:17:00,
2013-07-17 19:22:00,69.8,58.4,30.14,ENE,75,6.0,0.0,67,0.00,,CLR,0.02,VWS V14.01,2013-07-18 02:22:00,
2013-07-17 19:27:00,69.6,58.6,30.14,ESE,105,3.0,0.0,68,0.00,,CLR,0.02,VWS V14.01,2013-07-18 02:27:00,
2013-07-17 19:32:00,69.6,58.6,30.14,ESE,115,3.0,0.0,68,0.00,,CLR,0.02,VWS V14.01,2013-07-18 02:32:00,
2013-07-17 19:37:00,69.5,58.5,30.14,ESE,118,4.0,0.0,68,0.00,,CLR,0.02,VWS V14.01,2013-07-18 02:37:00,
2013-07-17 19:42:00,69.2,58.2,30.14,East,95,1.0,0.0,68,0.00,,CLR,0.02,VWS V14.01,2013-07-18 02:42:00,
2013-07-17 19:47:00,69.1,58.1,30.14,ESE,110,6.0,0.0,68,0.00,,CLR,0.02,VWS V14.01,2013-07-18 02:47:00,
2013-07-17 19:52:00,68.9,58.3,30.14,ESE,116,3.0,0.0,69,0.00,,CLR,0.02,VWS V14.01,2013-07-18 02:52:00,
2013-07-17 19:57:00,68.6,58.0,30.14,ESE,102,3.0,0.0,69,0.00,,CLR,0.02,VWS V14.01,2013-07-18 02:57:00,
2013-07-17 20:02:00,68.4,57.8,30.14,ENE,78,3.0,0.0,69,0.00,,CLR,0.02,VWS V14.01,2013-07-18 03:02:00,
2013-07-17 20:07:00,68.1,58.0,30.14,SE,138,0.0,0.0,70,0.00,,CLR,0.02,VWS V14.01,2013-07-18 03:07:00,
2013-07-17 20:12:00,68.0,57.9,30.15,ESE,117,2.0,0.0,70,0.00,,CLR,0.02,VWS V14.01,2013-07-18 03:12:00,
2013-07-17 20:17:00,67.6,57.9,30.15,ESE,111,3.0,0.0,71,0.00,,CLR,0.02,VWS V14.01,2013-07-18 03:17:00,
2013-07-17 20:22:00,67.0,57.3,30.15,ESE,108,5.0,0.0,71,0.00,,CLR,0.02,VWS V14.01,2013-07-18 03:22:00,
2013-07-17 20:27:00,66.4,57.1,30.15,East,91,4.0,0.0,72,0.00,,CLR,0.02,VWS V14.01,2013-07-18 03:27:00,
2013-07-17 20:32:00,65.7,56.8,30.15,East,80,4.0,0.0,73,0.00,,CLR,0.02,VWS V14.01,2013-07-18 03:32:00,
2013-07-17 20:37:00,65.0,56.5,30.15,ESE,117,1.0,0.0,74,0.00,,CLR,0.02,VWS V14.01,2013-07-18 03:37:00,
2013-07-17 20:42:00,64.4,56.7,30.15,ESE,119,0.0,0.0,76,0.00,,CLR,0.02,VWS V14.01,2013-07-18 03:42:00,
2013-07-17 20:47:00,64.0,56.3,30.16,ESE,113,0.0,0.0,76,0.00,,CLR,0.02,VWS V14.01,2013-07-18 03:47:00,
2013-07-17 20:52:00,63.6,56.3,30.16,ESE,103,2.0,0.0,77,0.00,,CLR,0.02,VWS V14.01,2013-07-18 03:52:00,
2013-07-17 20:57:00,63.3,56.3,30.16,East,100,3.0,0.0,78,0.00,,CLR,0.02,VWS V14.01,2013-07-18 03:57:00,
2013-07-17 21:01:00,63.1,56.1,30.16,East,93,7.0,0.0,78,0.00,,CLR,0.02,VWS V14.01,2013-07-18 04:01:00,
2013-07-17 21:06:00,62.8,56.2,30.16,East,90,3.0,0.0,79,0.00,,CLR,0.02,VWS V14.01,2013-07-18 04:06:00,
2013-07-17 21:11:00,62.6,56.3,30.16,ENE,73,3.0,0.0,80,0.00,,CLR,0.02,VWS V14.01,2013-07-18 04:11:00,
2013-07-17 21:16:00,62.4,56.2,30.16,ESE,107,2.0,0.0,80,0.00,,CLR,0.02,VWS V14.01,2013-07-18 04:16:00,
2013-07-17 21:21:00,62.2,56.3,30.16,SE,145,2.0,0.0,81,0.00,,CLR,0.02,VWS V14.01,2013-07-18 04:21:00,
2013-07-17 21:26:00,62.0,56.1,30.17,East,96,3.0,0.0,81,0.00,,CLR,0.02,VWS V14.01,2013-07-18 04:26:00,
2013-07-17 21:31:00,61.8,55.9,30.17,SE,131,1.0,0.0,81,0.00,,CLR,0.02,VWS V14.01,2013-07-18 04:31:00,
2013-07-17 21:36:00,61.6,56.1,30.17,SE,126,2.0,0.0,82,0.00,,CLR,0.02,VWS V14.01,2013-07-18 04:36:00,
2013-07-17 21:41:00,61.4,55.9,30.18,ESE,108,1.0,0.0,82,0.00,,CLR,0.02,VWS V14.01,2013-07-18 04:41:00,
2013-07-17 21:46:00,61.3,56.1,30.18,ESE,115,3.0,0.0,83,0.00,,CLR,0.02,VWS V14.01,2013-07-18 04:46:00,
2013-07-17 21:51:00,61.0,55.8,30.18,ESE,109,4.0,0.0,83,0.00,,CLR,0.02,VWS V14.01,2013-07-18 04:51:00,
2013-07-17 21:56:00,60.9,55.7,30.18,ESE,109,1.0,0.0,83,0.00,,CLR,0.02,VWS V14.01,2013-07-18 04:56:00,
2013-07-17 22:01:00,60.8,55.9,30.18,ESE,107,1.0,0.0,84,0.00,,CLR,0.02,VWS V14.01,2013-07-18 05:01:00,
2013-07-17 22:06:00,60.6,55.8,30.18,SE,126,1.0,0.0,84,0.00,,CLR,0.02,VWS V14.01,2013-07-18 05:06:00,
2013-07-17 22:11:00,60.4,55.5,30.19,ESE,111,0.0,0.0,84,0.00,,CLR,0.02,VWS V14.01,2013-07-18 05:11:00,
2013-07-17 22:16:00,60.2,55.7,30.19,ESE,115,2.0,0.0,85,0.00,,CLR,0.02,VWS V14.01,2013-07-18 05:16:00,
2013-07-17 22:21:00,59.9,55.4,30.19,ESE,122,0.0,0.0,85,0.00,,CLR,0.02,VWS V14.01,2013-07-18 05:21:00,
2013-07-17 22:26:00,59.7,55.5,30.19,ESE,114,0.0,0.0,86,0.00,,CLR,0.02,VWS V14.01,2013-07-18 05:26:00,
2013-07-17 22:31:00,59.5,55.3,30.19,NE,53,0.0,0.0,86,0.00,,CLR,0.02,VWS V14.01,2013-07-18 05:31:00,
2013-07-17 22:36:00,59.2,55.0,30.19,NE,54,0.0,0.0,86,0.00,,CLR,0.02,VWS V14.01,2013-07-18 05:36:00,
2013-07-17 22:41:00,58.9,55.0,30.19,NE,55,0.0,0.0,87,0.00,,CLR,0.02,VWS V14.01,2013-07-18 05:41:00,
2013-07-17 22:46:00,58.6,55.1,30.19,NE,55,0.0,0.0,88,0.00,,CLR,0.02,VWS V14.01,2013-07-18 05:46:00,
2013-07-17 22:51:00,58.5,55.0,30.19,NE,55,0.0,0.0,88,0.00,,CLR,0.02,VWS V14.01,2013-07-18 05:51:00,
2013-07-17 22:56:00,58.2,54.7,30.19,NE,55,0.0,0.0,88,0.00,,CLR,0.02,VWS V14.01,2013-07-18 05:56:00,
2013-07-17 23:01:00,57.9,54.4,30.19,NE,55,0.0,0.0,88,0.00,,CLR,0.02,VWS V14.01,2013-07-18 06:01:00,
2013-07-17 23:06:00,57.7,54.5,30.19,NE,55,0.0,0.0,89,0.00,,CLR,0.02,VWS V14.01,2013-07-18 06:06:00,
2013-07-17 23:11:00,57.4,54.2,30.19,NE,55,0.0,0.0,89,0.00,,CLR,0.02,VWS V14.01,2013-07-18 06:11:00,
2013-07-17 23:16:00,57.2,54.3,30.19,NE,55,0.0,0.0,90,0.00,,CLR,0.02,VWS V14.01,2013-07-18 06:16:00,
2013-07-17 23:21:00,57.0,54.1,30.19,NE,55,0.0,0.0,90,0.00,,CLR,0.02,VWS V14.01,2013-07-18 06:21:00,
2013-07-17 23:26:00,56.6,53.7,30.19,NE,55,0.0,0.0,90,0.00,,CLR,0.02,VWS V14.01,2013-07-18 06:26:00,
2013-07-17 23:31:00,56.4,53.8,30.19,NE,55,0.0,0.0,91,0.00,,CLR,0.02,VWS V14.01,2013-07-18 06:31:00,
2013-07-17 23:36:00,56.3,53.7,30.19,NE,55,0.0,0.0,91,0.00,,CLR,0.02,VWS V14.01,2013-07-18 06:36:00,
2013-07-17 23:41:00,56.2,53.6,30.20,NE,55,0.0,0.0,91,0.00,,CLR,0.02,VWS V14.01,2013-07-18 06:41:00,
2013-07-17 23:46:00,56.0,53.4,30.20,NE,55,0.0,0.0,91,0.00,,CLR,0.02,VWS V14.01,2013-07-18 06:46:00,
2013-07-17 23:51:00,55.9,53.3,30.20,NE,55,0.0,0.0,91,0.00,,CLR,0.02,VWS V14.01,2013-07-18 06:51:00,
2013-07-17 23:56:00,55.7,53.1,30.20,NE,55,0.0,0.0,91,0.00,,CLR,0.02,VWS V14.01,2013-07-18 06:56:00,